EW2785 Weather Reports


Display with metric or nautical units.
time (UTC)temp
F
wind
direction
speed
MPH
gust
MPH
rain 1hr
in
rain 24hr
in
rain mn
in
humidity
%
barometer
mb
20260901104525 63 217 0.0 0.0 0.03 0.03 0.03 91 1016.1
20260901103027 63 217 0.0 0.0 0.03 0.03 0.03 91 1016.3
20260901101525 63 217 0.0 0.0 0.01 0.01 0.01 91 1016.2
20260901100023 63 217 0.0 0.0 0.00 0.00 0.00 91 1016.3
20260901094525 63 217 0.0 0.0 0.00 0.00 0.00 91 1016.1
20260901093028 63 217 0.0 0.0 0.00 0.00 0.00 91 1016.1
20260901091522 63 217 0.0 0.0 0.00 0.00 0.00 91 1015.8
20260901090020 63 217 0.0 0.0 0.00 0.00 0.00 91 1015.6
20260901084520 63 217 0.0 0.0 0.00 0.00 0.00 91 1015.8
20260901083018 63 217 0.0 0.0 0.00 0.00 0.00 90 1016.1
20260901081517 63 217 0.0 0.0 0.00 0.00 0.00 90 1016.2
20260901080020 63 217 0.0 0.0 0.00 0.00 0.00 90 1016.2
20260901074517 63 217 0.0 0.0 0.00 0.00 0.00 90 1016.2
20260901073016 63 217 0.0 0.0 0.00 0.00 0.00 90 1016.2
20260901071516 63 217 0.0 0.0 0.00 0.00 0.00 90 1016.2
20260901070019 63 217 0.0 0.0 0.00 0.00 0.00 90 1016.2
20260901064519 63 217 0.0 0.0 0.00 0.00 0.00 89 1016.4
20260901063024 63 217 0.0 0.0 0.00 0.00 0.00 89 1016.5
20260901061509 63 217 0.0 0.0 0.00 0.00 0.00 89 1016.7
20260901060009 63 217 0.0 0.0 0.00 0.00 0.00 89 1016.7
20260901054506 63 217 0.0 0.0 0.00 0.00 0.00 89 1016.8
20260901053004 63 217 0.0 0.0 0.00 0.00 0.00 89 1017.1
20260901051503 63 217 0.0 0.0 0.00 0.00 0.00 88 1017.3
20260901050003 63 217 0.0 0.0 0.00 0.00 0.00 88 1017.3
20260901044502 64 217 0.0 0.0 0.00 0.00 0.00 88 1017.5
20260901043100 64 217 0.0 0.0 0.00 0.00 0.00 88 1017.4
20260901041559 64 217 0.0 0.0 0.00 0.00 0.00 88 1017.3
20260901040057 64 217 0.0 0.0 0.00 0.00 0.00 87 1017.2
20260901034557 64 217 0.0 0.0 0.00 0.00 0.00 87 1017.1
20260901033059 64 217 0.0 0.0 0.00 0.00 0.00 86 1017.0
20260901031557 64 217 0.0 0.0 0.00 0.00 0.00 86 1017.2
20260901030055 64 217 0.0 0.0 0.00 0.00 0.00 86 1017.3
20260901024555 65 217 0.0 0.0 0.00 0.00 0.00 85 1017.3
20260901023055 65 217 0.0 0.0 0.00 0.00 0.00 85 1017.3
20260901021555 66 217 0.0 1.0 0.00 0.00 0.00 85 1017.3
20260901020056 66 217 0.0 0.0 0.00 0.00 0.00 84 1017.4
20260901014554 67 217 0.0 0.0 0.00 0.00 0.00 84 1017.2
20260901013107 67 217 0.0 0.0 0.00 0.00 0.00 83 1017.1
20260901011553 67 217 0.0 1.0 0.00 0.00 0.00 82 1017.1
20260901010056 68 217 0.0 0.0 0.00 0.00 0.00 80 1017.0
20260901004551 69 217 0.0 0.0 0.00 0.00 0.00 79 1017.1
20260901003051 69 217 0.0 0.0 0.00 0.00 0.00 79 1017.1
20260901001553 70 217 0.0 0.0 0.00 0.00 0.00 78 1017.1
20260901000050 71 217 0.0 0.0 0.00 0.00 0.00 76 1017.1
20260831234556 71 217 0.0 0.0 0.00 0.00 0.00 74 1017.0
20260831233054 72 217 0.0 0.0 0.00 0.00 0.00 73 1017.0
20260831231550 73 217 0.0 0.0 0.00 0.00 0.00 70 1017.0
20260831230047 73 217 0.0 1.0 0.00 0.00 0.00 67 1017.1
20260831224545 74 217 0.0 1.0 0.00 0.00 0.00 67 1017.2
20260831223053 74 217 0.0 1.0 0.00 0.00 0.00 65 1017.3
20260831221545 75 217 0.0 0.0 0.00 0.00 0.00 62 1017.2
20260831220046 75 217 0.0 0.0 0.00 0.00 0.00 59 1017.2
20260831214557 76 217 0.0 2.0 0.00 0.00 0.00 57 1017.3
20260831213043 76 217 0.0 3.0 0.00 0.00 0.00 57 1017.2
20260831211545 75 217 0.0 3.0 0.00 0.00 0.00 55 1017.3
20260831210041 76 241 0.0 3.0 0.00 0.00 0.00 58 1017.3
20260831204542 75 226 0.0 1.0 0.00 0.00 0.00 56 1017.3
20260831203038 75 226 0.0 1.0 0.00 0.00 0.00 53 1017.5
20260831201537 76 211 0.0 2.0 0.00 0.00 0.00 60 1017.7
20260831200034 76 201 0.0 5.0 0.00 0.00 0.00 56 1018.0
20260831194532 76 197 0.0 5.0 0.00 0.00 0.00 56 1018.2
20260831193056 75 215 1.0 5.0 0.00 0.00 0.00 58 1018.2
20260831191529 76 225 0.0 5.0 0.00 0.00 0.00 58 1018.3
20260831190026 74 186 1.0 8.0 0.00 0.00 0.00 61 1018.4
20260831184521 74 197 2.0 6.0 0.00 0.00 0.00 63 1018.4
20260831183020 73 205 0.0 7.0 0.00 0.00 0.00 65 1018.5
20260831181525 73 177 1.0 6.0 0.00 0.00 0.00 63 1018.8
20260831180019 72 215 0.0 3.0 0.00 0.00 0.00 66 1018.9
20260831174517 72 215 0.0 3.0 0.00 0.00 0.00 68 1019.2
20260831173017 71 209 1.0 5.0 0.00 0.00 0.00 71 1019.3
20260831171511 71 331 0.0 5.0 0.00 0.00 0.00 72 1019.3
20260831170008 71 360 2.0 4.0 0.00 0.00 0.00 71 1019.4
20260831164507 71 319 1.0 4.0 0.00 0.00 0.00 75 1019.3
20260831163006 70 207 0.0 4.0 0.00 0.00 0.00 75 1019.6
20260831161506 70 338 0.0 4.0 0.00 0.00 0.00 75 1019.7
20260831160002 69 246 1.0 4.0 0.00 0.00 0.00 78 1019.9
20260831154501 69 336 0.0 3.0 0.00 0.00 0.00 78 1020.0
20260831153058 68 190 0.0 7.0 0.00 0.00 0.00 80 1020.2
20260831151556 68 34 0.0 3.0 0.00 0.00 0.00 81 1020.0
20260831144557 66 162 0.0 2.0 0.00 0.00 0.00 85 1019.8
20260831143047 65 219 2.0 4.0 0.00 0.00 0.00 87 1020.1
20260831141549 64 19 0.0 3.0 0.00 0.00 0.00 88 1020.1
20260831140044 64 209 0.0 2.0 0.00 0.00 0.00 89 1020.3
20260831134544 63 360 0.0 2.0 0.00 0.00 0.00 91 1020.1
20260831133041 62 5 0.0 2.0 0.00 0.00 0.00 92 1020.2
20260831131554 62 348 0.0 3.0 0.00 0.00 0.00 92 1020.2
20260831130045 62 350 0.0 2.0 0.00 0.00 0.00 93 1020.4
20260831124541 61 350 1.0 4.0 0.00 0.00 0.00 93 1020.5
20260831123043 61 334 0.0 2.0 0.00 0.00 0.00 93 1020.6
20260831121537 60 201 0.0 0.0 0.00 0.00 0.00 93 1020.6
20260831120036 60 201 0.0 0.0 0.00 0.00 0.00 93 1020.5
20260831114536 60 201 0.0 0.0 0.00 0.00 0.00 93 1020.6
20260831113041 60 201 0.0 1.0 0.00 0.00 0.00 93 1020.4
20260831111540 59 201 0.0 0.0 0.00 0.00 0.00 93 1020.1
20260831110033 59 201 0.0 0.0 0.00 0.00 0.00 93 1020.0